Voltar ao catálogo

COSMOS 2081

GLONASS

AtivoNavegaçãoMEO
NORAD 20621·PAYLOAD·🇷🇺 Russia

Lançado May 19, 1990 de Baikonur Cosmodrome

Loading…

Próximas Passagens (próximas 24 horas)

TLE

AtualizadoSource: Space-Track

Época: Sep 14, 2026, 12:41 UTC

1 20621U 90045C   26257.52911538 -.00000045  00000-0  00000-0 0  9995
2 20621  64.6717 305.5463 0047088 213.1207 146.7605  2.13105018282599

Acompanhe COSMOS 2081 em tempo real com AllMySat

Download on the App Store